Time,TemperatureF,DewpointF,PressureIn,WindDirection,WindDirectionDegrees,WindSpeedMPH,WindSpeedGustMPH,Humidity,HourlyPrecipIn,Conditions,Clouds,dailyrainin,SoftwareType,DateUTC
2013-02-16 00:00:00,62.1,12.3,28.59,ENE,57,10.5,10.5,14,0.00,,---,0.00,VWS V14.01,2013-02-16 08:00:00,
2013-02-16 00:05:00,62.1,12.3,28.59,East,79,10.1,11.0,14,0.00,,---,0.00,VWS V14.01,2013-02-16 08:05:00,
2013-02-16 00:10:00,62.1,12.3,28.61,NE,50,9.6,11.0,14,0.00,,---,0.00,VWS V14.01,2013-02-16 08:10:00,
2013-02-16 00:15:00,62.1,12.3,28.61,ENE,73,7.6,11.0,14,0.00,,---,0.00,VWS V14.01,2013-02-16 08:15:00,
2013-02-16 00:20:00,61.9,12.2,28.61,East,81,7.6,8.3,14,0.00,,---,0.00,VWS V14.01,2013-02-16 08:20:00,
2013-02-16 00:25:00,61.9,12.2,28.64,ENE,65,10.5,10.5,14,0.00,,---,0.00,VWS V14.01,2013-02-16 08:25:00,
2013-02-16 00:30:00,61.7,12.1,28.64,ENE,67,7.6,10.1,14,0.00,,---,0.00,VWS V14.01,2013-02-16 08:30:00,
2013-02-16 00:35:00,61.7,12.1,28.64,ENE,76,7.6,8.7,14,0.00,,---,0.00,VWS V14.01,2013-02-16 08:35:00,
2013-02-16 00:41:00,61.5,11.9,28.59,East,85,8.3,12.8,14,0.00,,---,0.00,VWS V14.01,2013-02-16 08:41:00,
2013-02-16 00:46:00,61.5,11.9,28.59,ENE,58,8.1,8.7,14,0.00,,---,0.00,VWS V14.01,2013-02-16 08:46:00,
2013-02-16 00:51:00,61.7,12.1,28.59,ENE,75,8.1,8.3,14,0.00,,---,0.00,VWS V14.01,2013-02-16 08:51:00,
2013-02-16 00:56:00,61.7,12.1,29.06,ENE,69,6.3,10.5,14,0.00,,---,0.00,VWS V14.01,2013-02-16 08:56:00,
2013-02-16 01:01:00,61.9,12.2,29.06,ENE,73,8.3,8.3,14,0.00,,---,0.00,VWS V14.01,2013-02-16 09:01:00,
2013-02-16 01:06:00,62.1,12.3,30.98,NE,44,6.7,6.7,14,0.00,,---,0.00,VWS V14.01,2013-02-16 09:06:00,
2013-02-16 01:11:00,62.1,12.3,30.98,ENE,58,6.7,7.6,14,0.00,,---,0.00,VWS V14.01,2013-02-16 09:11:00,
2013-02-16 01:16:00,61.9,12.2,30.98,NE,34,4.9,5.8,14,0.00,,---,0.00,VWS V14.01,2013-02-16 09:16:00,
2013-02-16 01:21:00,61.7,12.1,28.85,ENE,64,4.0,6.7,14,0.00,,---,0.00,VWS V14.01,2013-02-16 09:21:00,
2013-02-16 01:26:00,61.5,11.9,28.85,ENE,72,3.6,3.6,14,0.00,,---,0.00,VWS V14.01,2013-02-16 09:26:00,
2013-02-16 01:31:00,61.3,11.8,28.85,NE,46,4.0,6.3,14,0.00,,---,0.00,VWS V14.01,2013-02-16 09:31:00,
2013-02-16 01:36:00,61.0,11.5,29.06,ENE,65,5.8,5.8,14,0.00,,---,0.00,VWS V14.01,2013-02-16 09:36:00,
2013-02-16 01:41:00,61.0,11.5,29.06,ENE,63,5.4,5.8,14,0.00,,---,0.00,VWS V14.01,2013-02-16 09:41:00,
2013-02-16 01:46:00,60.8,11.3,29.06,ENE,72,2.7,4.9,14,0.00,,---,0.00,VWS V14.01,2013-02-16 09:46:00,
2013-02-16 01:51:00,60.8,11.3,28.73,ENE,78,0.0,4.0,14,0.00,,---,0.00,VWS V14.01,2013-02-16 09:51:00,
2013-02-16 01:56:00,60.8,11.3,28.73,East,87,4.0,5.4,14,0.00,,---,0.00,VWS V14.01,2013-02-16 09:56:00,
2013-02-16 02:01:00,60.8,11.3,28.73,ENE,63,6.3,6.3,14,0.00,,---,0.00,VWS V14.01,2013-02-16 10:01:00,
2013-02-16 02:06:00,60.8,11.3,30.89,ENE,64,4.0,4.0,14,0.00,,---,0.00,VWS V14.01,2013-02-16 10:06:00,
2013-02-16 02:11:00,60.8,11.3,30.89,NE,48,2.2,4.9,14,0.00,,---,0.00,VWS V14.01,2013-02-16 10:11:00,
2013-02-16 02:16:00,60.6,11.2,30.89,NE,42,3.6,5.8,14,0.00,,---,0.00,VWS V14.01,2013-02-16 10:16:00,
2013-02-16 02:21:00,60.6,11.2,28.50,NE,54,3.6,3.6,14,0.00,,---,0.00,VWS V14.01,2013-02-16 10:21:00,
2013-02-16 02:26:00,60.4,11.0,28.50,ENE,64,4.0,4.0,14,0.00,,---,0.00,VWS V14.01,2013-02-16 10:26:00,
2013-02-16 02:31:00,60.4,11.0,28.50,ENE,64,5.4,5.4,14,0.00,,---,0.00,VWS V14.01,2013-02-16 10:31:00,
2013-02-16 02:37:00,60.1,10.8,28.47,NE,46,3.1,4.0,14,0.00,,---,0.00,VWS V14.01,2013-02-16 10:37:00,
2013-02-16 02:42:00,60.1,10.8,28.47,ENE,64,3.1,4.9,14,0.00,,---,0.00,VWS V14.01,2013-02-16 10:42:00,
2013-02-16 02:47:00,59.9,10.6,28.47,NE,55,3.6,4.0,14,0.00,,---,0.00,VWS V14.01,2013-02-16 10:47:00,
2013-02-16 02:52:00,59.7,10.5,28.73,NE,55,4.0,4.9,14,0.00,,---,0.00,VWS V14.01,2013-02-16 10:52:00,
2013-02-16 02:57:00,59.5,10.3,28.73,NE,55,4.0,5.8,14,0.00,,---,0.00,VWS V14.01,2013-02-16 10:57:00,
2013-02-16 03:02:00,59.5,10.3,28.73,NE,55,5.4,5.4,14,0.00,,---,0.00,VWS V14.01,2013-02-16 11:02:00,
2013-02-16 03:07:00,59.2,10.0,30.12,NE,55,4.9,5.4,14,0.00,,---,0.00,VWS V14.01,2013-02-16 11:07:00,
2013-02-16 03:12:00,58.6,9.6,30.12,NE,55,3.6,3.6,14,0.00,,---,0.00,VWS V14.01,2013-02-16 11:12:00,
2013-02-16 03:17:00,58.3,9.3,30.12,NE,55,4.0,5.4,14,0.00,,---,0.00,VWS V14.01,2013-02-16 11:17:00,
2013-02-16 03:22:00,58.3,9.3,29.06,NE,55,4.0,4.0,14,0.00,,---,0.00,VWS V14.01,2013-02-16 11:22:00,
2013-02-16 03:27:00,58.1,9.2,29.06,NE,55,4.5,5.4,14,0.00,,---,0.00,VWS V14.01,2013-02-16 11:27:00,
2013-02-16 03:32:00,58.1,9.2,29.06,NE,55,4.0,4.0,14,0.00,,---,0.00,VWS V14.01,2013-02-16 11:32:00,
2013-02-16 03:37:00,57.9,9.0,30.59,NE,55,3.6,4.9,14,0.00,,---,0.00,VWS V14.01,2013-02-16 11:37:00,
2013-02-16 03:42:00,57.9,9.0,30.59,NE,55,4.9,4.9,14,0.00,,---,0.00,VWS V14.01,2013-02-16 11:42:00,
2013-02-16 03:47:00,57.9,9.0,30.59,NE,55,4.9,4.9,14,0.00,,---,0.00,VWS V14.01,2013-02-16 11:47:00,
2013-02-16 03:52:00,57.9,9.0,31.01,NE,55,3.6,3.6,14,0.00,,---,0.00,VWS V14.01,2013-02-16 11:52:00,
2013-02-16 03:57:00,57.9,9.0,31.01,NE,55,5.4,5.4,14,0.00,,---,0.00,VWS V14.01,2013-02-16 11:57:00,
2013-02-16 04:02:00,57.7,8.9,31.01,NE,55,4.0,4.5,14,0.00,,---,0.00,VWS V14.01,2013-02-16 12:02:00,
2013-02-16 04:07:00,57.7,8.9,29.00,NE,55,3.6,4.0,14,0.00,,---,0.00,VWS V14.01,2013-02-16 12:07:00,
2013-02-16 04:12:00,57.6,8.7,29.00,NE,55,4.0,4.0,14,0.00,,---,0.00,VWS V14.01,2013-02-16 12:12:00,
2013-02-16 04:17:00,57.6,8.7,29.00,NE,55,4.0,4.0,14,0.00,,---,0.00,VWS V14.01,2013-02-16 12:17:00,
2013-02-16 04:22:00,57.7,8.9,28.79,NE,55,3.6,4.0,14,0.00,,---,0.00,VWS V14.01,2013-02-16 12:22:00,
2013-02-16 04:27:00,57.9,9.0,28.79,NE,55,4.0,4.0,14,0.00,,---,0.00,VWS V14.01,2013-02-16 12:27:00,
2013-02-16 04:32:00,57.9,9.0,28.79,NE,55,4.9,4.9,14,0.00,,---,0.00,VWS V14.01,2013-02-16 12:32:00,
2013-02-16 04:37:00,57.7,8.9,29.23,NE,55,3.6,4.0,14,0.00,,---,0.00,VWS V14.01,2013-02-16 12:37:00,
2013-02-16 04:42:00,57.7,8.9,29.23,NE,55,5.8,5.8,14,0.00,,---,0.00,VWS V14.01,2013-02-16 12:42:00,
2013-02-16 04:48:00,57.6,8.7,29.23,NE,55,4.9,4.9,14,0.00,,---,0.00,VWS V14.01,2013-02-16 12:48:00,
2013-02-16 04:53:00,57.4,8.6,29.03,NE,55,4.0,4.5,14,0.00,,---,0.00,VWS V14.01,2013-02-16 12:53:00,
2013-02-16 04:58:00,57.2,8.4,29.03,NE,55,4.9,4.9,14,0.00,,---,0.00,VWS V14.01,2013-02-16 12:58:00,
2013-02-16 05:03:00,57.0,9.8,29.03,NE,55,4.9,4.9,15,0.00,,---,0.00,VWS V14.01,2013-02-16 13:03:00,
2013-02-16 05:08:00,57.0,9.8,29.62,NE,55,4.0,4.0,15,0.00,,---,0.00,VWS V14.01,2013-02-16 13:08:00,
2013-02-16 05:13:00,57.0,9.8,29.62,NE,55,4.9,5.4,15,0.00,,---,0.00,VWS V14.01,2013-02-16 13:13:00,
2013-02-16 05:18:00,57.0,9.8,29.62,NE,55,4.5,4.5,15,0.00,,---,0.00,VWS V14.01,2013-02-16 13:18:00,
2013-02-16 05:23:00,57.0,9.8,31.01,NE,55,3.1,4.0,15,0.00,,---,0.00,VWS V14.01,2013-02-16 13:23:00,
2013-02-16 05:28:00,57.2,8.4,31.01,NE,55,3.1,4.0,14,0.00,,---,0.00,VWS V14.01,2013-02-16 13:28:00,
2013-02-16 05:33:00,57.0,9.8,31.01,NE,55,3.6,4.9,15,0.00,,---,0.00,VWS V14.01,2013-02-16 13:33:00,
2013-02-16 05:38:00,56.8,9.7,31.01,NE,55,5.4,5.4,15,0.00,,---,0.00,VWS V14.01,2013-02-16 13:38:00,
2013-02-16 05:43:00,56.8,9.7,31.01,NE,55,3.6,5.4,15,0.00,,---,0.00,VWS V14.01,2013-02-16 13:43:00,
2013-02-16 05:48:00,56.8,9.7,31.01,NE,55,4.0,4.0,15,0.00,,---,0.00,VWS V14.01,2013-02-16 13:48:00,
2013-02-16 05:53:00,56.7,9.6,31.01,NE,55,3.1,4.0,15,0.00,,---,0.00,VWS V14.01,2013-02-16 13:53:00,
2013-02-16 05:58:00,56.7,9.6,31.01,NE,55,4.0,4.9,15,0.00,,---,0.00,VWS V14.01,2013-02-16 13:58:00,
2013-02-16 06:03:00,56.8,9.7,31.01,NE,55,4.0,4.5,15,0.00,,---,0.00,VWS V14.01,2013-02-16 14:03:00,
2013-02-16 06:08:00,56.8,9.7,31.01,NE,55,3.1,3.1,15,0.00,,---,0.00,VWS V14.01,2013-02-16 14:08:00,
2013-02-16 06:13:00,56.8,9.7,31.01,NE,55,4.0,4.9,15,0.00,,---,0.00,VWS V14.01,2013-02-16 14:13:00,
2013-02-16 06:18:00,56.8,9.7,31.01,NE,55,5.4,5.4,15,0.00,,---,0.00,VWS V14.01,2013-02-16 14:18:00,
2013-02-16 06:23:00,56.8,9.7,30.68,NE,55,4.9,5.4,15,0.00,,---,0.00,VWS V14.01,2013-02-16 14:23:00,
2013-02-16 06:28:00,56.8,9.7,30.68,NE,55,4.9,5.4,15,0.00,,---,0.00,VWS V14.01,2013-02-16 14:28:00,
2013-02-16 06:33:00,56.7,9.6,30.68,NE,55,4.0,5.4,15,0.00,,---,0.00,VWS V14.01,2013-02-16 14:33:00,
2013-02-16 06:38:00,56.8,9.7,30.98,NE,55,4.5,5.4,15,0.00,,---,0.00,VWS V14.01,2013-02-16 14:38:00,
2013-02-16 06:43:00,57.2,8.4,30.98,NE,55,3.1,3.6,14,0.00,,---,0.00,VWS V14.01,2013-02-16 14:43:00,
2013-02-16 06:48:00,57.4,8.6,30.98,NE,55,4.0,5.4,14,0.00,,---,0.00,VWS V14.01,2013-02-16 14:48:00,
2013-02-16 06:54:00,57.2,8.4,31.01,NE,55,3.1,4.9,14,0.00,,---,0.00,VWS V14.01,2013-02-16 14:54:00,
2013-02-16 06:59:00,57.2,8.4,31.01,NE,55,5.4,5.4,14,0.00,,---,0.00,VWS V14.01,2013-02-16 14:59:00,
2013-02-16 07:04:00,57.6,8.7,31.01,NE,55,3.1,4.0,14,0.00,,---,0.00,VWS V14.01,2013-02-16 15:04:00,
2013-02-16 07:09:00,57.6,8.7,31.01,ENE,78,3.6,4.0,14,0.00,,---,0.00,VWS V14.01,2013-02-16 15:09:00,
2013-02-16 07:14:00,57.6,8.7,31.01,ENE,68,4.0,5.8,14,0.00,,---,0.00,VWS V14.01,2013-02-16 15:14:00,
2013-02-16 07:19:00,57.6,8.7,31.01,ENE,57,3.6,5.4,14,0.00,,---,0.00,VWS V14.01,2013-02-16 15:19:00,
2013-02-16 07:24:00,57.6,8.7,31.01,NNE,30,3.6,5.4,14,0.00,,---,0.00,VWS V14.01,2013-02-16 15:24:00,
2013-02-16 07:29:00,57.9,9.0,31.01,ENE,59,4.0,4.0,14,0.00,,---,0.00,VWS V14.01,2013-02-16 15:29:00,
2013-02-16 07:34:00,58.1,9.2,31.01,ENE,74,4.0,5.4,14,0.00,,---,0.00,VWS V14.01,2013-02-16 15:34:00,
2013-02-16 07:39:00,58.5,9.5,31.01,ENE,74,3.1,4.0,14,0.00,,---,0.00,VWS V14.01,2013-02-16 15:39:00,
2013-02-16 07:44:00,58.8,9.8,31.01,ENE,72,2.7,3.6,14,0.00,,---,0.00,VWS V14.01,2013-02-16 15:44:00,
2013-02-16 07:49:00,59.2,10.0,31.01,NE,34,4.0,5.8,14,0.00,,---,0.00,VWS V14.01,2013-02-16 15:49:00,
2013-02-16 07:54:00,59.4,10.2,31.01,East,89,3.6,3.6,14,0.00,,---,0.00,VWS V14.01,2013-02-16 15:54:00,
2013-02-16 07:59:00,59.7,10.5,31.01,ENE,73,4.9,4.9,14,0.00,,---,0.00,VWS V14.01,2013-02-16 15:59:00,
2013-02-16 08:04:00,60.3,10.9,31.01,East,89,4.0,4.0,14,0.00,,---,0.00,VWS V14.01,2013-02-16 16:04:00,
2013-02-16 08:09:00,60.8,11.3,31.01,East,85,3.1,4.0,14,0.00,,---,0.00,VWS V14.01,2013-02-16 16:09:00,
2013-02-16 08:14:00,61.3,11.8,31.01,East,85,3.6,5.4,14,0.00,,---,0.00,VWS V14.01,2013-02-16 16:14:00,
2013-02-16 08:19:00,61.7,12.1,31.01,East,87,3.6,8.3,14,0.00,,---,0.00,VWS V14.01,2013-02-16 16:19:00,
2013-02-16 08:24:00,61.9,12.2,31.01,East,90,2.2,3.1,14,0.00,,---,0.00,VWS V14.01,2013-02-16 16:24:00,
2013-02-16 08:29:00,62.1,12.3,31.01,ENE,59,0.0,0.0,14,0.00,,---,0.00,VWS V14.01,2013-02-16 16:29:00,
2013-02-16 08:34:00,62.2,12.5,31.01,East,89,2.7,3.1,14,0.00,,---,0.00,VWS V14.01,2013-02-16 16:34:00,
2013-02-16 08:39:00,62.1,12.3,31.01,ESE,121,2.7,6.3,14,0.00,,---,0.00,VWS V14.01,2013-02-16 16:39:00,
2013-02-16 08:44:00,62.1,12.3,31.01,East,84,4.9,4.9,14,0.00,,---,0.00,VWS V14.01,2013-02-16 16:44:00,
2013-02-16 08:49:00,62.1,12.3,31.01,ENE,64,2.7,4.9,14,0.00,,---,0.00,VWS V14.01,2013-02-16 16:49:00,
2013-02-16 08:54:00,62.1,12.3,31.01,ENE,66,2.7,6.3,14,0.00,,---,0.00,VWS V14.01,2013-02-16 16:54:00,
2013-02-16 08:59:00,61.7,12.1,31.01,East,96,5.8,6.7,14,0.00,,---,0.00,VWS V14.01,2013-02-16 16:59:00,
2013-02-16 09:04:00,61.7,12.1,31.01,East,94,3.1,3.1,14,0.00,,---,0.00,VWS V14.01,2013-02-16 17:04:00,
2013-02-16 09:09:00,61.9,12.2,31.01,ENE,65,3.6,7.6,14,0.00,,---,0.00,VWS V14.01,2013-02-16 17:09:00,
2013-02-16 09:14:00,62.2,12.5,31.01,East,91,3.6,5.4,14,0.00,,---,0.00,VWS V14.01,2013-02-16 17:14:00,
2013-02-16 09:20:00,63.0,11.4,31.01,ESE,117,0.0,4.0,13,0.00,,---,0.00,VWS V14.01,2013-02-16 17:20:00,
2013-02-16 09:25:00,63.5,11.8,31.01,SE,130,6.3,6.3,13,0.00,,---,0.00,VWS V14.01,2013-02-16 17:25:00,
2013-02-16 09:30:00,63.9,12.1,31.01,East,101,5.4,8.7,13,0.00,,---,0.00,VWS V14.01,2013-02-16 17:30:00,
2013-02-16 09:35:00,64.4,12.5,31.01,SE,124,7.6,7.6,13,0.00,,---,0.00,VWS V14.01,2013-02-16 17:35:00,
2013-02-16 09:40:00,64.4,12.5,31.01,SE,139,4.0,8.3,13,0.00,,---,0.00,VWS V14.01,2013-02-16 17:40:00,
2013-02-16 09:45:00,64.6,12.7,31.01,ESE,107,6.3,6.3,13,0.00,,---,0.00,VWS V14.01,2013-02-16 17:45:00,
2013-02-16 09:50:00,64.9,12.9,31.01,ESE,107,2.7,5.8,13,0.00,,---,0.00,VWS V14.01,2013-02-16 17:50:00,
2013-02-16 09:55:00,64.9,12.9,31.01,ESE,122,3.1,5.8,13,0.00,,---,0.00,VWS V14.01,2013-02-16 17:55:00,
2013-02-16 10:00:00,64.6,12.7,31.01,SSE,154,4.9,4.9,13,0.00,,---,0.00,VWS V14.01,2013-02-16 18:00:00,
2013-02-16 10:05:00,64.4,12.5,31.01,SW,214,0.0,0.0,13,0.00,,---,0.00,VWS V14.01,2013-02-16 18:05:00,
2013-02-16 10:10:00,64.2,12.4,31.01,NE,37,3.6,3.6,13,0.00,,---,0.00,VWS V14.01,2013-02-16 18:10:00,
2013-02-16 10:15:00,64.4,12.5,31.01,SE,145,0.0,4.0,13,0.00,,---,0.00,VWS V14.01,2013-02-16 18:15:00,
2013-02-16 10:20:00,64.8,12.8,31.01,SSE,150,3.1,8.1,13,0.00,,---,0.00,VWS V14.01,2013-02-16 18:20:00,
2013-02-16 10:25:00,64.8,12.8,31.01,WNW,299,2.7,4.0,13,0.00,,---,0.00,VWS V14.01,2013-02-16 18:25:00,
2013-02-16 10:30:00,64.8,12.8,31.01,NNE,19,2.7,3.6,13,0.00,,---,0.00,VWS V14.01,2013-02-16 18:30:00,
2013-02-16 10:35:00,64.8,12.8,31.01,East,95,5.4,8.7,13,0.00,,---,0.00,VWS V14.01,2013-02-16 18:35:00,
2013-02-16 10:40:00,64.9,12.9,30.95,East,82,3.6,5.4,13,0.00,,---,0.00,VWS V14.01,2013-02-16 18:40:00,
2013-02-16 10:45:00,64.6,12.7,30.95,ENE,74,0.0,5.4,13,0.00,,---,0.00,VWS V14.01,2013-02-16 18:45:00,
2013-02-16 10:50:00,64.4,12.5,30.95,ENE,66,0.0,0.0,13,0.00,,---,0.00,VWS V14.01,2013-02-16 18:50:00,
2013-02-16 10:55:00,64.2,12.4,31.01,WNW,285,2.2,5.8,13,0.00,,---,0.00,VWS V14.01,2013-02-16 18:55:00,
2013-02-16 11:00:00,64.2,12.4,31.01,NE,34,0.0,2.7,13,0.00,,---,0.00,VWS V14.01,2013-02-16 19:00:00,
2013-02-16 11:05:00,64.2,12.4,31.01,East,91,0.0,3.1,13,0.00,,---,0.00,VWS V14.01,2013-02-16 19:05:00,
2013-02-16 11:10:00,64.2,12.4,31.01,SSE,166,3.1,3.1,13,0.00,,---,0.00,VWS V14.01,2013-02-16 19:10:00,
2013-02-16 11:15:00,64.8,12.8,31.01,SE,125,5.4,5.4,13,0.00,,---,0.00,VWS V14.01,2013-02-16 19:15:00,
2013-02-16 11:21:00,65.5,13.4,31.01,ESE,106,3.1,3.6,13,0.00,,---,0.00,VWS V14.01,2013-02-16 19:21:00,
2013-02-16 11:26:00,65.8,13.6,31.01,ESE,106,2.7,2.7,13,0.00,,---,0.00,VWS V14.01,2013-02-16 19:26:00,
2013-02-16 11:31:00,66.6,12.4,31.01,WSW,245,4.0,4.9,12,0.00,,---,0.00,VWS V14.01,2013-02-16 19:31:00,
2013-02-16 11:36:00,66.9,12.7,31.01,WSW,254,3.6,6.3,12,0.00,,---,0.00,VWS V14.01,2013-02-16 19:36:00,
2013-02-16 11:41:00,66.7,12.5,31.01,SSW,206,3.6,6.3,12,0.00,,---,0.00,VWS V14.01,2013-02-16 19:41:00,
2013-02-16 11:46:00,66.7,12.5,31.01,West,271,0.0,0.0,12,0.00,,---,0.00,VWS V14.01,2013-02-16 19:46:00,
2013-02-16 11:51:00,66.9,12.7,30.95,West,259,4.9,4.9,12,0.00,,---,0.00,VWS V14.01,2013-02-16 19:51:00,
2013-02-16 11:56:00,66.4,12.3,30.95,SW,225,0.0,3.1,12,0.00,,---,0.00,VWS V14.01,2013-02-16 19:56:00,
2013-02-16 12:01:00,66.2,12.1,30.95,WSW,238,4.9,8.1,12,0.00,,---,0.00,VWS V14.01,2013-02-16 20:01:00,
2013-02-16 12:06:00,66.9,12.7,31.01,West,263,6.3,6.3,12,0.00,,---,0.00,VWS V14.01,2013-02-16 20:06:00,
2013-02-16 12:11:00,66.7,12.5,31.01,SW,235,6.3,8.3,12,0.00,,---,0.00,VWS V14.01,2013-02-16 20:11:00,
2013-02-16 12:16:00,66.6,12.4,31.01,SE,124,0.0,0.0,12,0.00,,---,0.00,VWS V14.01,2013-02-16 20:16:00,
2013-02-16 12:21:00,66.4,12.3,30.95,South,180,4.0,5.8,12,0.00,,---,0.00,VWS V14.01,2013-02-16 20:21:00,
2013-02-16 12:26:00,65.5,13.4,30.95,SE,131,4.0,4.9,13,0.00,,---,0.00,VWS V14.01,2013-02-16 20:26:00,
2013-02-16 12:31:00,65.7,13.5,30.95,SSW,202,8.7,10.1,13,0.00,,---,0.00,VWS V14.01,2013-02-16 20:31:00,
2013-02-16 12:36:00,65.8,13.6,30.98,South,185,4.9,4.9,13,0.00,,---,0.00,VWS V14.01,2013-02-16 20:36:00,
2013-02-16 12:41:00,66.6,12.4,30.98,SSW,196,2.7,6.3,12,0.00,,---,0.00,VWS V14.01,2013-02-16 20:41:00,
2013-02-16 12:46:00,67.3,13.0,30.98,NW,309,3.1,3.1,12,0.00,,---,0.00,VWS V14.01,2013-02-16 20:46:00,
2013-02-16 12:51:00,67.5,13.1,30.83,SW,235,3.6,7.6,12,0.00,,---,0.00,VWS V14.01,2013-02-16 20:51:00,
2013-02-16 12:56:00,67.5,13.1,30.83,SW,234,6.3,6.3,12,0.00,,---,0.00,VWS V14.01,2013-02-16 20:56:00,
2013-02-16 13:01:00,67.3,13.0,30.83,South,173,2.7,4.0,12,0.00,,---,0.00,VWS V14.01,2013-02-16 21:01:00,
2013-02-16 13:06:00,66.9,12.7,30.98,WSW,242,5.4,8.3,12,0.00,,---,0.00,VWS V14.01,2013-02-16 21:06:00,
2013-02-16 13:11:00,66.2,12.1,30.98,SW,223,4.0,6.3,12,0.00,,---,0.00,VWS V14.01,2013-02-16 21:11:00,
2013-02-16 13:16:00,65.7,13.5,30.98,South,190,4.5,4.5,13,0.00,,---,0.00,VWS V14.01,2013-02-16 21:16:00,
2013-02-16 13:21:00,65.8,13.6,28.88,WSW,246,2.7,4.9,13,0.00,,---,0.00,VWS V14.01,2013-02-16 21:21:00,
2013-02-16 13:27:00,66.4,12.3,28.88,SW,230,4.9,8.1,12,0.00,,---,0.00,VWS V14.01,2013-02-16 21:27:00,
2013-02-16 13:32:00,66.6,12.4,28.88,SSE,160,5.4,8.1,12,0.00,,---,0.00,VWS V14.01,2013-02-16 21:32:00,
2013-02-16 13:37:00,66.7,12.5,29.12,West,263,4.9,8.1,12,0.00,,---,0.00,VWS V14.01,2013-02-16 21:37:00,
2013-02-16 13:42:00,66.7,12.5,29.12,SW,229,3.6,8.1,12,0.00,,---,0.00,VWS V14.01,2013-02-16 21:42:00,
2013-02-16 13:47:00,66.7,12.5,29.12,South,188,3.6,8.3,12,0.00,,---,0.00,VWS V14.01,2013-02-16 21:47:00,
2013-02-16 13:52:00,66.7,12.5,28.73,SSW,192,3.1,8.7,12,0.00,,---,0.00,VWS V14.01,2013-02-16 21:52:00,
2013-02-16 13:57:00,66.9,12.7,28.73,West,264,6.3,6.3,12,0.00,,---,0.00,VWS V14.01,2013-02-16 21:57:00,
2013-02-16 14:02:00,66.7,12.5,28.73,West,276,10.1,10.1,12,0.00,,---,0.00,VWS V14.01,2013-02-16 22:02:00,
2013-02-16 14:07:00,66.4,12.3,28.76,West,276,8.7,10.5,12,0.00,,---,0.00,VWS V14.01,2013-02-16 22:07:00,
2013-02-16 14:12:00,66.2,12.1,28.76,WNW,285,8.1,8.3,12,0.00,,---,0.00,VWS V14.01,2013-02-16 22:12:00,
2013-02-16 14:17:00,66.0,13.8,28.76,WSW,255,6.3,8.7,13,0.00,,---,0.00,VWS V14.01,2013-02-16 22:17:00,
2013-02-16 14:22:00,66.0,13.8,28.82,SW,230,4.9,6.3,13,0.00,,---,0.00,VWS V14.01,2013-02-16 22:22:00,
2013-02-16 14:27:00,66.4,12.3,28.82,SSW,202,5.8,9.2,12,0.00,,---,0.00,VWS V14.01,2013-02-16 22:27:00,
2013-02-16 14:32:00,66.4,12.3,28.82,SW,223,2.7,2.7,12,0.00,,---,0.00,VWS V14.01,2013-02-16 22:32:00,
2013-02-16 14:37:00,66.6,12.4,28.64,West,259,3.6,7.6,12,0.00,,---,0.00,VWS V14.01,2013-02-16 22:37:00,
2013-02-16 14:42:00,66.6,12.4,28.64,SW,232,2.7,4.9,12,0.00,,---,0.00,VWS V14.01,2013-02-16 22:42:00,
2013-02-16 14:47:00,66.0,13.8,28.64,West,261,3.1,7.2,13,0.00,,---,0.00,VWS V14.01,2013-02-16 22:47:00,
2013-02-16 14:52:00,65.7,13.5,28.50,West,264,4.0,6.3,13,0.00,,---,0.00,VWS V14.01,2013-02-16 22:52:00,
2013-02-16 14:57:00,65.5,13.4,28.50,West,265,8.1,8.7,13,0.00,,---,0.00,VWS V14.01,2013-02-16 22:57:00,
2013-02-16 15:02:00,65.1,13.1,28.50,West,276,5.8,9.6,13,0.00,,---,0.00,VWS V14.01,2013-02-16 23:02:00,
2013-02-16 15:08:00,65.1,13.1,28.91,West,274,8.3,8.3,13,0.00,,---,0.00,VWS V14.01,2013-02-16 23:08:00,
2013-02-16 15:13:00,65.1,13.1,28.91,SSW,208,2.7,6.3,13,0.00,,---,0.00,VWS V14.01,2013-02-16 23:13:00,
2013-02-16 15:18:00,65.3,13.2,28.91,WSW,252,5.8,8.7,13,0.00,,---,0.00,VWS V14.01,2013-02-16 23:18:00,
2013-02-16 15:23:00,65.5,13.4,28.14,SSW,207,4.0,6.3,13,0.00,,---,0.00,VWS V14.01,2013-02-16 23:23:00,
2013-02-16 15:28:00,65.7,13.5,28.14,West,270,6.3,7.6,13,0.00,,---,0.00,VWS V14.01,2013-02-16 23:28:00,
2013-02-16 15:33:00,65.8,13.6,28.14,WNW,286,2.7,5.8,13,0.00,,---,0.00,VWS V14.01,2013-02-16 23:33:00,
2013-02-16 15:38:00,65.7,13.5,28.05,WSW,246,3.1,7.6,13,0.00,,---,0.00,VWS V14.01,2013-02-16 23:38:00,
2013-02-16 15:43:00,65.8,13.6,28.05,SW,218,4.0,5.4,13,0.00,,---,0.00,VWS V14.01,2013-02-16 23:43:00,
2013-02-16 15:48:00,64.8,12.8,28.05,WSW,253,2.7,2.7,13,0.00,,---,0.00,VWS V14.01,2013-02-16 23:48:00,
2013-02-16 15:53:00,63.9,12.1,27.88,West,266,0.0,5.8,13,0.00,,---,0.00,VWS V14.01,2013-02-16 23:53:00,
2013-02-16 15:58:00,63.3,11.7,27.88,West,266,2.7,3.1,13,0.00,,---,0.00,VWS V14.01,2013-02-16 23:58:00,
2013-02-16 16:03:00,63.0,11.4,27.88,West,266,3.6,4.0,13,0.00,,---,0.00,VWS V14.01,2013-02-17 00:03:00,
2013-02-16 16:08:00,63.1,11.5,27.85,West,265,2.7,2.7,13,0.00,,---,0.00,VWS V14.01,2013-02-17 00:08:00,
2013-02-16 16:13:00,63.1,11.5,27.85,WSW,237,0.0,0.0,13,0.00,,---,0.00,VWS V14.01,2013-02-17 00:13:00,
2013-02-16 16:18:00,63.1,11.5,27.85,WSW,237,0.0,0.0,13,0.00,,---,0.00,VWS V14.01,2013-02-17 00:18:00,
2013-02-16 16:23:00,63.1,11.5,27.94,WSW,237,2.7,3.6,13,0.00,,---,0.00,VWS V14.01,2013-02-17 00:23:00,
2013-02-16 16:28:00,63.3,11.7,27.94,WSW,237,0.0,0.0,13,0.00,,---,0.00,VWS V14.01,2013-02-17 00:28:00,
2013-02-16 16:33:00,64.0,12.2,27.94,WSW,237,3.6,4.0,13,0.00,,---,0.00,VWS V14.01,2013-02-17 00:33:00,
2013-02-16 16:38:00,64.4,12.5,28.11,ENE,72,3.1,3.1,13,0.00,,---,0.00,VWS V14.01,2013-02-17 00:38:00,
2013-02-16 16:43:00,64.4,12.5,28.11,NNW,345,3.6,4.0,13,0.00,,---,0.00,VWS V14.01,2013-02-17 00:43:00,
2013-02-16 16:48:00,64.0,12.2,28.11,North,5,2.7,3.1,13,0.00,,---,0.00,VWS V14.01,2013-02-17 00:48:00,
2013-02-16 16:53:00,63.9,12.1,28.11,North,5,3.1,3.6,13,0.00,,---,0.00,VWS V14.01,2013-02-17 00:53:00,
2013-02-16 16:58:00,63.9,12.1,28.11,NNW,327,3.6,4.0,13,0.00,,---,0.00,VWS V14.01,2013-02-17 00:58:00,
2013-02-16 17:04:00,64.0,12.2,28.11,NNW,341,2.7,4.0,13,0.00,,---,0.00,VWS V14.01,2013-02-17 01:04:00,
2013-02-16 17:09:00,64.0,12.2,28.23,NNW,341,0.0,0.0,13,0.00,,---,0.00,VWS V14.01,2013-02-17 01:09:00,
2013-02-16 17:14:00,63.9,12.1,28.23,NNW,341,0.0,3.6,13,0.00,,---,0.00,VWS V14.01,2013-02-17 01:14:00,
2013-02-16 17:19:00,63.5,11.8,28.23,NNW,341,0.0,0.0,13,0.00,,---,0.00,VWS V14.01,2013-02-17 01:19:00,
2013-02-16 17:24:00,63.1,11.5,28.02,NNW,341,0.0,0.0,13,0.00,,---,0.00,VWS V14.01,2013-02-17 01:24:00,
2013-02-16 17:29:00,63.0,11.4,28.02,NNW,341,0.0,0.0,13,0.00,,---,0.00,VWS V14.01,2013-02-17 01:29:00,
2013-02-16 17:34:00,63.0,11.4,28.02,NNW,341,0.0,0.0,13,0.00,,---,0.00,VWS V14.01,2013-02-17 01:34:00,
2013-02-16 17:39:00,62.4,12.6,28.02,NNW,341,0.0,0.0,14,0.00,,---,0.00,VWS V14.01,2013-02-17 01:39:00,
2013-02-16 17:44:00,61.5,11.9,28.02,NNW,341,2.7,2.7,14,0.00,,---,0.00,VWS V14.01,2013-02-17 01:44:00,
2013-02-16 17:49:00,60.1,10.8,28.02,NE,51,4.0,4.0,14,0.00,,---,0.00,VWS V14.01,2013-02-17 01:49:00,
2013-02-16 17:54:00,58.8,9.8,27.99,ENE,57,4.0,4.0,14,0.00,,---,0.00,VWS V14.01,2013-02-17 01:54:00,
2013-02-16 17:59:00,57.6,8.7,27.99,ENE,59,4.5,4.5,14,0.00,,---,0.00,VWS V14.01,2013-02-17 01:59:00,
2013-02-16 18:04:00,56.8,9.7,27.99,ENE,59,3.6,3.6,15,0.00,,---,0.00,VWS V14.01,2013-02-17 02:04:00,
2013-02-16 18:09:00,56.1,9.1,27.88,ENE,59,4.9,4.9,15,0.00,,---,0.00,VWS V14.01,2013-02-17 02:09:00,
2013-02-16 18:14:00,55.9,9.0,27.88,ENE,59,5.4,5.4,15,0.00,,---,0.00,VWS V14.01,2013-02-17 02:14:00,
2013-02-16 18:19:00,55.6,8.7,27.88,ENE,58,5.4,5.4,15,0.00,,---,0.00,VWS V14.01,2013-02-17 02:19:00,
2013-02-16 18:24:00,55.2,8.4,28.08,ENE,60,5.8,5.8,15,0.00,,---,0.00,VWS V14.01,2013-02-17 02:24:00,
2013-02-16 18:29:00,55.0,8.2,28.08,ENE,60,5.4,6.3,15,0.00,,---,0.00,VWS V14.01,2013-02-17 02:29:00,
2013-02-16 18:34:00,54.9,8.1,28.08,ENE,60,6.3,6.3,15,0.00,,---,0.00,VWS V14.01,2013-02-17 02:34:00,
2013-02-16 18:39:00,54.7,8.0,28.08,ENE,65,6.3,7.6,15,0.00,,---,0.00,VWS V14.01,2013-02-17 02:39:00,
2013-02-16 18:44:00,54.5,7.8,28.08,NE,56,7.6,7.6,15,0.00,,---,0.00,VWS V14.01,2013-02-17 02:44:00,
2013-02-16 18:50:00,54.5,7.8,28.08,ENE,65,7.6,7.6,15,0.00,,---,0.00,VWS V14.01,2013-02-17 02:50:00,
2013-02-16 18:55:00,54.1,7.5,28.08,ENE,65,7.6,7.6,15,0.00,,---,0.00,VWS V14.01,2013-02-17 02:55:00,
2013-02-16 19:00:00,54.1,7.5,28.08,ENE,64,7.2,7.2,15,0.00,,---,0.00,VWS V14.01,2013-02-17 03:00:00,
2013-02-16 19:05:00,54.1,7.5,28.08,ENE,60,7.6,7.6,15,0.00,,---,0.00,VWS V14.01,2013-02-17 03:05:00,
2013-02-16 19:10:00,54.0,7.4,28.05,NE,55,7.6,7.6,15,0.00,,---,0.00,VWS V14.01,2013-02-17 03:10:00,
2013-02-16 19:15:00,53.8,7.2,28.05,ENE,57,6.3,7.6,15,0.00,,---,0.00,VWS V14.01,2013-02-17 03:15:00,
2013-02-16 19:20:00,53.8,7.2,28.05,NE,42,4.0,5.4,15,0.00,,---,0.00,VWS V14.01,2013-02-17 03:20:00,
2013-02-16 19:25:00,53.8,7.2,28.23,NE,48,5.4,7.6,15,0.00,,---,0.00,VWS V14.01,2013-02-17 03:25:00,
2013-02-16 19:30:00,53.8,7.2,28.23,NE,51,5.4,5.4,15,0.00,,---,0.00,VWS V14.01,2013-02-17 03:30:00,
2013-02-16 19:35:00,53.8,7.2,28.23,NE,45,7.6,7.6,15,0.00,,---,0.00,VWS V14.01,2013-02-17 03:35:00,
2013-02-16 19:40:00,54.0,7.4,28.20,NE,54,4.9,6.3,15,0.00,,---,0.00,VWS V14.01,2013-02-17 03:40:00,
2013-02-16 19:45:00,54.1,7.5,28.20,NE,46,4.9,8.1,15,0.00,,---,0.00,VWS V14.01,2013-02-17 03:45:00,
2013-02-16 19:50:00,54.1,7.5,28.20,NE,46,5.8,6.3,15,0.00,,---,0.00,VWS V14.01,2013-02-17 03:50:00,
2013-02-16 19:55:00,54.1,7.5,28.17,NE,46,4.9,5.4,15,0.00,,---,0.00,VWS V14.01,2013-02-17 03:55:00,
2013-02-16 20:00:00,54.3,7.7,28.17,ENE,64,7.6,7.6,15,0.00,,---,0.00,VWS V14.01,2013-02-17 04:00:00,
2013-02-16 20:05:00,54.5,7.8,28.17,ENE,59,8.1,9.6,15,0.00,,---,0.00,VWS V14.01,2013-02-17 04:05:00,
2013-02-16 20:10:00,54.3,7.7,28.11,ENE,58,5.8,5.8,15,0.00,,---,0.00,VWS V14.01,2013-02-17 04:10:00,
2013-02-16 20:15:00,54.1,7.5,28.11,ENE,58,5.4,6.3,15,0.00,,---,0.00,VWS V14.01,2013-02-17 04:15:00,
2013-02-16 20:20:00,54.1,7.5,28.11,NE,51,5.4,5.8,15,0.00,,---,0.00,VWS V14.01,2013-02-17 04:20:00,
2013-02-16 20:26:00,54.3,7.7,28.53,ENE,57,6.3,7.6,15,0.00,,---,0.00,VWS V14.01,2013-02-17 04:26:00,
2013-02-16 20:31:00,54.1,7.5,28.53,NE,54,6.7,6.7,15,0.00,,---,0.00,VWS V14.01,2013-02-17 04:31:00,
2013-02-16 20:36:00,53.8,7.2,28.53,NE,54,6.3,8.1,15,0.00,,---,0.00,VWS V14.01,2013-02-17 04:36:00,
2013-02-16 20:41:00,53.6,7.1,28.35,NE,54,2.7,3.6,15,0.00,,---,0.00,VWS V14.01,2013-02-17 04:41:00,
2013-02-16 20:46:00,53.6,7.1,28.35,NE,54,0.0,0.0,15,0.00,,---,0.00,VWS V14.01,2013-02-17 04:46:00,
2013-02-16 20:51:00,54.3,7.7,28.64,NE,54,4.0,4.5,15,0.00,,---,0.00,VWS V14.01,2013-02-17 04:51:00,
2013-02-16 20:56:00,53.6,7.1,28.64,NE,54,4.0,4.9,15,0.00,,---,0.00,VWS V14.01,2013-02-17 04:56:00,
2013-02-16 21:00:00,53.1,8.1,28.64,NE,54,4.9,4.9,16,0.00,,---,0.00,VWS V14.01,2013-02-17 05:00:00,
2013-02-16 21:02:00,52.5,7.6,28.64,NE,54,4.9,4.9,16,0.00,,---,0.00,VWS V14.01,2013-02-17 05:02:00,
2013-02-16 21:04:00,52.3,7.5,28.64,NE,54,5.8,5.8,16,0.00,,---,0.00,VWS V14.01,2013-02-17 05:04:00,
2013-02-16 21:09:00,52.0,7.2,28.29,NE,54,4.0,5.4,16,0.00,,---,0.00,VWS V14.01,2013-02-17 05:09:00,
2013-02-16 21:14:00,51.8,7.1,28.29,NE,54,5.4,6.3,16,0.00,,---,0.00,VWS V14.01,2013-02-17 05:14:00,
2013-02-16 21:19:00,52.0,7.2,28.29,NE,54,5.4,6.3,16,0.00,,---,0.00,VWS V14.01,2013-02-17 05:19:00,
2013-02-16 21:24:00,52.3,7.5,28.35,NE,55,6.3,6.3,16,0.00,,---,0.00,VWS V14.01,2013-02-17 05:24:00,
2013-02-16 21:29:00,52.9,7.9,28.35,NE,52,6.7,8.1,16,0.00,,---,0.00,VWS V14.01,2013-02-17 05:29:00,
2013-02-16 21:34:00,53.1,8.1,28.35,ENE,61,7.2,8.1,16,0.00,,---,0.00,VWS V14.01,2013-02-17 05:34:00,
2013-02-16 21:39:00,53.6,7.1,28.67,NE,42,5.4,6.3,15,0.00,,---,0.00,VWS V14.01,2013-02-17 05:39:00,
2013-02-16 21:44:00,53.8,7.2,28.67,North,357,6.3,6.3,15,0.00,,---,0.00,VWS V14.01,2013-02-17 05:44:00,
2013-02-16 21:49:00,54.1,7.5,28.67,North,9,3.6,5.8,15,0.00,,---,0.00,VWS V14.01,2013-02-17 05:49:00,
2013-02-16 21:54:00,54.7,8.0,28.44,NE,37,6.3,6.3,15,0.00,,---,0.00,VWS V14.01,2013-02-17 05:54:00,
2013-02-16 21:59:00,55.2,8.4,28.44,NE,38,3.6,7.6,15,0.00,,---,0.00,VWS V14.01,2013-02-17 05:59:00,
2013-02-16 22:04:00,55.6,8.7,28.44,NNE,25,4.9,11.0,15,0.00,,---,0.00,VWS V14.01,2013-02-17 06:04:00,
2013-02-16 22:09:00,55.6,8.7,28.26,NNW,346,4.9,8.1,15,0.00,,---,0.00,VWS V14.01,2013-02-17 06:09:00,
2013-02-16 22:14:00,55.6,8.7,28.26,ENE,75,7.6,7.6,15,0.00,,---,0.00,VWS V14.01,2013-02-17 06:14:00,
2013-02-16 22:19:00,55.4,8.5,28.26,North,5,8.1,8.1,15,0.00,,---,0.00,VWS V14.01,2013-02-17 06:19:00,
2013-02-16 22:24:00,55.4,8.5,28.53,NNE,32,4.9,5.8,15,0.00,,---,0.00,VWS V14.01,2013-02-17 06:24:00,
2013-02-16 22:30:00,55.2,8.4,28.53,NE,47,6.3,8.1,15,0.00,,---,0.00,VWS V14.01,2013-02-17 06:30:00,
2013-02-16 22:35:00,55.2,8.4,28.53,ENE,57,6.3,7.6,15,0.00,,---,0.00,VWS V14.01,2013-02-17 06:35:00,
2013-02-16 22:40:00,55.2,8.4,28.73,ENE,68,8.1,8.7,15,0.00,,---,0.00,VWS V14.01,2013-02-17 06:40:00,
2013-02-16 22:45:00,55.2,8.4,28.73,NE,39,8.3,8.3,15,0.00,,---,0.00,VWS V14.01,2013-02-17 06:45:00,
2013-02-16 22:50:00,55.2,8.4,28.73,NNE,25,5.8,7.6,15,0.00,,---,0.00,VWS V14.01,2013-02-17 06:50:00,
2013-02-16 22:55:00,55.2,8.4,29.74,East,88,4.0,7.6,15,0.00,,---,0.00,VWS V14.01,2013-02-17 06:55:00,
2013-02-16 23:00:00,54.9,8.1,29.74,NE,51,4.9,4.9,15,0.00,,---,0.00,VWS V14.01,2013-02-17 07:00:00,
2013-02-16 23:05:00,54.5,7.8,29.74,ENE,61,5.4,5.8,15,0.00,,---,0.00,VWS V14.01,2013-02-17 07:05:00,
2013-02-16 23:10:00,54.1,7.5,31.01,ENE,61,4.9,4.9,15,0.00,,---,0.00,VWS V14.01,2013-02-17 07:10:00,
2013-02-16 23:15:00,53.8,7.2,31.01,ENE,57,6.3,6.3,15,0.00,,---,0.00,VWS V14.01,2013-02-17 07:15:00,
2013-02-16 23:20:00,53.4,8.4,31.01,NE,51,4.9,4.9,16,0.00,,---,0.00,VWS V14.01,2013-02-17 07:20:00,
2013-02-16 23:25:00,53.4,8.4,29.77,East,89,4.9,8.1,16,0.00,,---,0.00,VWS V14.01,2013-02-17 07:25:00,
2013-02-16 23:30:00,53.4,8.4,29.77,ENE,59,4.0,4.0,16,0.00,,---,0.00,VWS V14.01,2013-02-17 07:30:00,
2013-02-16 23:35:00,53.4,8.4,29.77,ENE,57,4.5,5.4,16,0.00,,---,0.00,VWS V14.01,2013-02-17 07:35:00,
2013-02-16 23:40:00,53.4,8.4,28.94,NE,45,3.1,4.0,16,0.00,,---,0.00,VWS V14.01,2013-02-17 07:40:00,
2013-02-16 23:45:00,53.4,8.4,28.94,ENE,71,2.7,6.3,16,0.00,,---,0.00,VWS V14.01,2013-02-17 07:45:00,
2013-02-16 23:50:00,53.2,8.2,28.94,ENE,70,5.4,6.3,16,0.00,,---,0.00,VWS V14.01,2013-02-17 07:50:00,
2013-02-16 23:55:00,53.6,7.1,28.79,ENE,71,2.7,6.3,15,0.00,,---,0.00,VWS V14.01,2013-02-17 07:55:00,